Location: *
(47.6569°N, 7.4256°E)
Time: 19:31:35
(UTC+00:00)

Cosmos 2151 Rocket - Pass Details

Date: 14 December 2019
Orbit: 617 x 642 km, 82.5° (Epoch: 24 January)

Event Time Altitude Azimuth Distance (km) Brightness Sun altitude
Rises 17:36:15 0° 354° (N) 2,913 6.9 -18.8°
Reaches altitude 10° 17:38:33 10° 360° (N) 1,999 6.0 -19.2°
Maximum altitude 17:42:52 52° 77° (ENE) 774 3.6 -19.9°
Drops below altitude 10° 17:47:09 10° 154° (SSE) 1,977 6.0 -20.6°
Sets 17:49:25 0° 159° (SSE) 2,878 6.9 -20.9°
